UAL620 MDST-KEWR

Flight info

Callsign UAL620
Flight time N/A
Altitude 29000
Route PEKSA2 SGO DCT PTA DCT LERED DCT LAMER/M080F300 L453 ALOBI/M080F320 L453 SAUCR/M080F310 Y485 CHUBY/M080F320 Y485 HOBOH/M080F330 Y485 SILLY/N0469F330 Y485 YAALE Y497 MOUGH/N0473F320 Y497 SUBBS DCT CYN DCT GXU DCT RBV V249 METRO
Aircraft B738/M-SDE2E3FGHIRWXY/LB1

Departure

Time 2026-05-06 18:28
Airport Cibao International Airport (MDST)

Arrival

Time N/A
Airport Newark Liberty International Airport (KEWR)
Time Latitude Longitude Altitude Speed Heading
2026-05-06 18:10 19.40290 -70.60236 569 ft 0 kts 203°
2026-05-06 18:19 19.40304 -70.60230 569 ft 4 kts 207°
2026-05-06 18:20 19.40327 -70.60215 572 ft 4 kts 218°
2026-05-06 18:20 19.40346 -70.60196 569 ft 4 kts 232°
2026-05-06 18:20 19.40359 -70.60172 572 ft 4 kts 263°
2026-05-06 18:20 19.40359 -70.60160 569 ft 0 kts 284°
2026-05-06 18:23 19.40362 -70.60171 571 ft 5 kts 283°
2026-05-06 18:23 19.40377 -70.60236 571 ft 13 kts 283°
2026-05-06 18:23 19.40396 -70.60331 570 ft 13 kts 283°
2026-05-06 18:24 19.40420 -70.60423 571 ft 13 kts 298°
2026-05-06 18:24 19.40503 -70.60432 571 ft 13 kts 11°
2026-05-06 18:24 19.40599 -70.60418 568 ft 5 kts 330°
2026-05-06 18:24 19.40617 -70.60497 573 ft 21 kts 282°
2026-05-06 18:25 19.40650 -70.60649 571 ft 21 kts 283°
2026-05-06 18:25 19.40683 -70.60797 570 ft 21 kts 283°
2026-05-06 18:25 19.40723 -70.60984 573 ft 28 kts 282°
2026-05-06 18:25 19.40770 -70.61196 570 ft 35 kts 283°
2026-05-06 18:26 19.40825 -70.61451 571 ft 35 kts 283°
2026-05-06 18:26 19.40869 -70.61613 572 ft 21 kts 296°
2026-05-06 18:26 19.40832 -70.61629 571 ft 10 kts 102°
2026-05-06 18:26 19.40847 -70.61559 570 ft 10 kts 86°
2026-05-06 18:27 19.40831 -70.61474 575 ft 27 kts 103°
2026-05-06 18:27 19.40733 -70.61021 577 ft 97 kts 103°
2026-05-06 18:27 19.40538 -70.60101 572 ft 157 kts 100°
2026-05-06 18:27 19.40305 -70.58891 1161 ft 165 kts 102°
2026-05-06 18:28 19.40041 -70.57725 2014 ft 167 kts 107°
2026-05-06 18:28 19.39723 -70.56473 2461 ft 191 kts 109°
2026-05-06 18:28 19.39301 -70.55042 2632 ft 222 kts 107°
2026-05-06 18:28 19.38953 -70.53374 3000 ft 233 kts 102°
2026-05-06 18:29 19.38636 -70.51684 3660 ft 240 kts 105°
2026-05-06 18:29 19.38444 -70.49871 4136 ft 260 kts 91°
2026-05-06 18:29 19.38620 -70.47927 4770 ft 270 kts 89°
2026-05-06 18:29 19.38829 -70.45928 5490 ft 273 kts 88°
2026-05-06 18:30 19.39032 -70.43902 6126 ft 282 kts 88°
2026-05-06 18:30 19.39236 -70.41815 6769 ft 287 kts 87°